Location: Ermatingen
(47.6706°N, 9.0857°E)
Time: 08:55:43
(UTC+00:00)

NOSS 3-2 (C) - Pass Details

Date: 18 September 2020
Orbit: 795 x 1418 km, 63.4° (Epoch: 02 October)

Event Time Altitude Azimuth Distance (km) Brightness Sun altitude
Rises 20:34:34 0° 317° (NW) 3,987 7.9 -29.4°
Reaches altitude 10° 20:37:11 10° 314° (NW) 3,108 7.0 -29.8°
Maximum altitude 20:44:32 56° 239° (WSW) 1,517 4.4 -30.7°
Enters shadow 20:46:12 49° 201° (SSW) 1,662 4.4 -30.9°
